FW0065 Weather Reports


time (UTC)temp
C
wind
direction
speed
KPH
gust
KPH
rain 1hr
cm
rain 24hr
cm
rain mn
cm
humidity
%
barometer
mb
20260505081004 17 0 0.0 0.0 0.03 0.15 0.15 95 1019.8
20260505080005 17 0 0.0 0.0 0.03 0.15 0.15 95 1019.8
20260505075026 17 0 0.0 0.0 0.05 0.15 0.15 95 1019.9
20260505074004 17 0 0.0 0.0 0.05 0.15 0.15 94 1019.7
20260505073005 17 0 0.0 0.0 0.05 0.15 0.15 94 1019.4
20260505072025 17 0 0.0 0.0 0.05 0.15 0.15 94 1019.4
20260505071003 17 0 0.0 0.0 0.05 0.15 0.15 93 1019.6
20260505070026 17 0 0.0 0.0 0.05 0.15 0.15 93 1019.5
20260505065004 17 0 0.0 0.0 0.05 0.13 0.13 92 1019.5
20260505064005 17 0 0.0 0.0 0.05 0.13 0.13 92 1019.6
20260505063025 17 260 0.0 1.6 0.08 0.13 0.13 91 1019.3
20260505062004 17 268 0.0 3.2 0.13 0.13 0.13 91 1019.3
20260505061003 17 259 0.0 4.8 0.10 0.10 0.10 90 1019.3
20260505060004 18 258 1.6 4.8 0.08 0.08 0.08 89 1019.2
20260505055004 18 265 0.0 4.8 0.08 0.08 0.08 89 1019.1
20260505054004 18 266 0.0 6.4 0.05 0.05 0.05 88 1019.1
20260505053005 18 249 0.0 3.2 0.05 0.05 0.05 87 1018.8
20260505052004 19 236 0.0 3.2 0.00 0.00 0.00 85 1018.7
20260505051005 19 236 0.0 3.2 0.00 0.00 0.00 85 1018.7
20260505041005 20 229 1.6 6.4 0.00 0.00 0.00 79 1018.0
20260505040005 21 240 1.6 12.9 0.00 0.00 0.00 75 1018.2
20260505035005 21 234 6.4 19.3 0.00 0.00 0.00 71 1018.2
20260505034005 21 235 3.2 11.3 0.00 0.00 0.00 69 1018.2
20260505033005 22 238 4.8 14.5 0.00 0.00 0.00 66 1018.1
20260505032028 22 242 1.6 6.4 0.00 0.00 0.00 62 1017.9
20260505031005 23 330 1.6 9.7 0.00 0.00 0.00 61 1017.8
20260505030005 23 21 1.6 12.9 0.00 0.00 0.00 60 1017.9
20260505025007 23 24 0.0 4.8 0.00 0.00 0.00 60 1018.0
20260505024027 23 8 1.6 6.4 0.00 0.00 0.00 61 1018.3
20260505023005 23 327 1.6 8.0 0.00 0.00 0.00 61 1018.4
20260505022005 23 300 1.6 6.4 0.00 0.00 0.00 62 1018.5
20260505021005 23 10 1.6 6.4 0.00 0.00 0.00 62 1018.7
20260505020005 23 352 1.6 4.8 0.00 0.00 0.00 61 1018.7
20260505015005 23 297 0.0 3.2 0.00 0.00 0.00 60 1018.9
20260505014026 23 292 1.6 9.7 0.00 0.00 0.00 61 1019.1
20260505013005 23 329 1.6 6.4 0.00 0.00 0.00 63 1019.3
20260505012026 22 346 1.6 6.4 0.00 0.00 0.00 66 1019.5
20260505011005 22 347 1.6 4.8 0.00 0.00 0.00 68 1019.8
20260505010026 21 332 1.6 6.4 0.00 0.00 0.00 69 1019.9
20260505005005 21 7 0.0 4.8 0.00 0.00 0.00 70 1020.0
20260505004005 21 4 0.0 3.2 0.00 0.00 0.00 71 1019.9
20260505003005 21 346 0.0 4.8 0.00 0.00 0.00 70 1020.1
20260505002006 21 3 0.0 3.2 0.00 0.00 0.00 70 1019.9
20260505001006 21 8 0.0 3.2 0.00 0.00 0.00 70 1020.1
20260505000005 21 4 0.0 3.2 0.00 0.00 0.00 70 1020.3
20260504235026 21 24 0.0 1.6 0.00 0.00 0.00 71 1020.2
20260504234005 20 18 0.0 3.2 0.00 0.00 0.00 71 1020.4
20260504233005 20 339 0.0 1.6 0.00 0.00 0.00 72 1020.4
20260504232005 20 343 0.0 3.2 0.00 0.00 0.00 73 1020.4
20260504231005 21 5 0.0 4.8 0.00 0.00 0.00 70 1020.6
20260504230006 20 4 0.0 1.6 0.00 0.00 0.00 70 1020.7
20260504225004 20 224 0.0 1.6 0.00 0.00 0.00 66 1020.6
20260504224025 18 184 0.0 1.6 0.00 0.00 0.00 69 1020.6
20260504223027 18 0 0.0 0.0 0.00 0.00 0.00 70 1020.6
20260504222025 17 188 0.0 1.6 0.00 0.00 0.00 71 1020.7
20260504221004 17 0 0.0 0.0 0.00 0.00 0.00 73 1020.8
20260504220026 16 188 0.0 3.2 0.00 0.00 0.00 73 1020.8
20260504215004 16 167 0.0 3.2 0.00 0.00 0.00 73 1020.6
20260504214004 16 147 0.0 1.6 0.00 0.00 0.00 73 1020.4
20260504213028 15 0 0.0 0.0 0.00 0.00 0.00 74 1020.4
20260504212006 15 0 0.0 0.0 0.00 0.00 0.00 75 1020.5
20260504211004 15 0 0.0 0.0 0.00 0.00 0.00 75 1020.4
20260504210006 15 0 0.0 0.0 0.00 0.00 0.00 75 1020.4
20260504205004 15 162 0.0 1.6 0.00 0.00 0.00 76 1020.1
20260504204006 15 197 0.0 1.6 0.00 0.00 0.00 76 1020.1
20260504203004 15 202 0.0 1.6 0.00 0.00 0.00 77 1020.1
20260504202004 15 202 0.0 1.6 0.00 0.00 0.00 77 1020.0
20260504201005 15 196 0.0 1.6 0.00 0.00 0.00 77 1019.9
20260504200005 14 195 0.0 1.6 0.00 0.00 0.00 77 1019.7
20260504195004 14 198 0.0 1.6 0.00 0.00 0.00 77 1019.7
20260504194004 14 0 0.0 0.0 0.00 0.00 0.00 76 1019.7
20260504193006 14 0 0.0 0.0 0.00 0.00 0.00 77 1019.7
20260504192026 14 0 0.0 0.0 0.00 0.00 0.00 77 1019.5
20260504191005 13 206 0.0 1.6 0.00 0.00 0.00 78 1019.5
20260504190004 13 213 0.0 1.6 0.00 0.00 0.00 78 1019.4
20260504185006 13 0 0.0 0.0 0.00 0.00 0.00 78 1019.3
20260504184004 13 0 0.0 0.0 0.00 0.00 0.00 78 1019.2
20260504183004 13 213 0.0 1.6 0.00 0.00 0.00 78 1019.1
20260504182004 13 0 0.0 0.0 0.00 0.00 0.00 77 1019.2
20260504181004 13 0 0.0 0.0 0.00 0.00 0.00 76 1019.0
20260504180004 13 0 0.0 0.0 0.00 0.00 0.00 77 1019.0
20260504175004 13 214 0.0 1.6 0.00 0.00 0.00 77 1019.1
20260504174025 12 223 1.6 4.8 0.00 0.00 0.00 78 1019.2
20260504173004 12 0 0.0 0.0 0.00 0.00 0.00 78 1018.9
20260504172004 12 232 0.0 1.6 0.00 0.00 0.00 78 1018.8
20260504171004 12 196 0.0 3.2 0.00 0.00 0.00 78 1018.8
20260504151027 13 0 0.0 0.0 0.00 0.00 0.00 72 1018.6
20260504141004 15 0 0.0 0.0 0.00 0.00 0.00 66 1019.3
20260504082004 22 0 0.0 0.0 0.00 0.00 0.00 51 1018.6